Regional Weather Roundup
Issued by NWS Little Rock, AR

Home | Current Version | Previous Version | Text Only | Print | Product List | Glossary On
Versions: 1 2 3 4 5 6 7 8 9 10 11 12 13 14 15 16 17 18 19 20 21 22 23 24 25 26 27 28 29 30 31
000
ASUS44 KLZK 260505
RWRLZK

WEATHER ROUNDUP FOR ARKANSAS
NATIONAL WEATHER SERVICE LITTLE ROCK AR
1200 AM CDT SUN MAR 26 2017

NOTE: "FAIR" INDICATES FEW OR NO CLOUDS BELOW 12,000 FEET WITH NO
SIGNIFICANT WEATHER AND/OR OBSTRUCTIONS TO VISIBILITY.

ARZ001-003-010-029-260600-
NORTHWEST ARKANSAS

CITY           SKY/WX    TMP DP  RH WIND       PRES   REMARKS
FAYETTEVILLE   CLOUDY    47  46  97 SW3       29.93F
FORT SMITH     CLOUDY    52  45  77 CALM      29.93F
HARRISON       CLOUDY    48  43  82 W6        29.93F
BENTONVILLE    CLOUDY    46  45  93 CALM      29.93F
ROGERS         CLOUDY    46  44  93 W3        29.93F
SILOAM SPGS    CLOUDY    46  43  87 SW3       29.93F
HIGHFILL       CLOUDY    47  46  97 W5        29.92F
$$

ARZ004-005-016-260600-
NORTH CENTRAL ARKANSAS

CITY           SKY/WX    TMP DP  RH WIND       PRES   REMARKS
BATESVILLE     CLOUDY    54  46  76 W5        29.94S
FLIPPIN        CLOUDY    52  43  71 W5        29.92S
MTN HOME       CLOUDY    50  44  80 W3        29.92F
$$

ARZ040-041-260600-
WEST CENTRAL ARKANSAS

CITY           SKY/WX    TMP DP  RH WIND       PRES   REMARKS
MENA           CLEAR     50  48  93 CALM      29.94F
MOUNT IDA      PTCLDY    52  47  83 CALM      29.92F
$$

ARZ009-017-025-026-028-260600-
NORTHEAST ARKANSAS

CITY           SKY/WX    TMP DP  RH WIND       PRES   REMARKS
CORNING        MOCLDY    55  52  88 W8        29.92S
JONESBORO      CLOUDY    58  49  72 W8        29.92S
NEWPORT        MOCLDY    54  48  80 SW5       29.94R
WALNUT RIDGE   CLOUDY    54  46  76 W7        29.92F
BLYTHEVILLE    CLOUDY    58  58 100 S3        29.92F
$$

ARZ022-023-033-042-044-260600-
CENTRAL ARKANSAS

CITY           SKY/WX    TMP DP  RH WIND       PRES   REMARKS
LITTLE ROCK    PTCLDY    51  47  86 NW7       29.95F
JACKSONVILLE   CLEAR     53  46  79 NW3       29.94F
CONWAY           N/A     50  48  93 CALM      29.94S
SEARCY         CLOUDY    52  48  86 CALM      29.96S
HOT SPRINGS    CLEAR     53  49  86 CALM      29.94F
RUSSELLVILLE   CLOUDY    51  47  86 CALM      29.94F
CLINTON        CLOUDY    48  48 100 CALM      29.95S
$$

ARZ036-260600-
EAST ARKANSAS

CITY           SKY/WX    TMP DP  RH WIND       PRES   REMARKS
WEST MEMPHIS   PTCLDY    60  60 100 W5        29.92S
$$

ARZ050-053-066-070-073-260600-
SOUTHWEST ARKANSAS

CITY           SKY/WX    TMP DP  RH WIND       PRES   REMARKS
ARKADELPHIA    FAIR      56  52  86 NE3       29.94S
CAMDEN         CLEAR     54  50  87 CALM      29.94S
TEXARKANA      CLEAR     56  50  80 CALM      29.93F
EL DORADO      CLEAR     54  52  93 CALM      29.94S
DE QUEEN       CLEAR     50  50 100 CALM      29.92S FOG
$$

ARZ056-057-069-260600-
SOUTHEAST ARKANSAS

CITY           SKY/WX    TMP DP  RH WIND       PRES   REMARKS
PINE BLUFF     CLEAR     54  50  86 N7        29.95S
STUTTGART      CLEAR     54  43  66 NW8       29.96S
MONTICELLO     CLEAR     55  51  86 CALM      29.93S

$$






USA.gov is the U.S. government's official web portal to all federal, state and local government web resources and services.